Location: Le Petit-Vavre
(46.5081°N, 1.5239°E)
Time: 16:04:29
(UTC+00:00)

USA 307 - Pass Details

Date: 03 March 2021
Orbit: 567 x 577 km, 54.0° (Epoch: 16 April)

Event Time Altitude Azimuth Distance (km) Brightness Sun altitude
Rises 18:14:50 0° 271° (W) 2,784 9.2 -6.3°
Reaches altitude 10° 18:17:15 10° 280° (W) 1,885 7.2 -6.7°
Maximum altitude 18:21:12 34° 347° (NNW) 948 4.2 -7.4°
Drops below altitude 10° 18:25:08 10° 53° (NE) 1,881 5.1 -8.1°
Enters shadow 18:25:53 - 57° (ENE) 2,155 5.3 -8.2°
